Location: Arborea
(39.7744°N, 8.5819°E)
Time: 01:53:03
(UTC+00:00)

Tiangong - Visible Passes

Search period start: 28 February 2024 00:00
Search period end: 09 March 2024 00:00
Orbit: 375 x 385 km, 41.5° (Epoch: 27 February)

Date Brightness Start Highest point End Pass type
(mag) Time Alt. Az. Time Alt. Az. Time Alt. Az.
28 Feb -1.0 18:13:06 10° SW 18:15:50 29° SSE 18:17:04 21° ESE visible
29 Feb -2.3 18:48:07 10° WSW 18:51:09 74° S 18:51:09 74° S visible
01 Mar -1.7 17:47:00 10° SW 17:49:59 46° SSE 17:52:58 10° E visible
01 Mar 0.1 19:23:35 10° W 19:25:05 25° W 19:25:05 25° W visible
02 Mar -2.2 18:22:11 10° W 18:25:18 81° N 18:26:47 28° ENE visible
03 Mar -1.8 18:57:34 10° W 19:00:28 58° NNW 19:00:28 58° NNW visible
04 Mar -2.0 17:56:00 10° W 17:59:06 66° N 18:01:56 12° ENE visible
04 Mar 0.5 19:32:49 10° WNW 19:34:02 21° WNW 19:34:02 21° WNW visible
05 Mar -2.0 18:31:13 10° WNW 18:34:19 62° N 18:35:26 34° ENE visible
06 Mar -1.6 19:06:17 10° WNW 19:08:52 58° W 19:08:52 58° W visible
07 Mar -2.1 18:04:33 10° WNW 18:07:39 72° N 18:10:10 14° E visible
07 Mar 0.8 19:41:22 10° W 19:42:16 17° W 19:42:16 17° W visible
08 Mar -1.9 18:39:27 10° W 18:42:31 59° SSW 18:43:32 36° SE visible
